|
CZ-4C R/B - Orbit
|
Vassar Physics Lab;
12:40:07
| Home | Info | Passes |
|
View from above orbital plane
|
View from above satellite
|
Ground track
|
The orbit data is extracted from the following two-line orbital elements,
1 36416U 10009D 13138.18120053 -.00000084 00000-0 11577-4 0 5394
2 36416 063.4531 296.9374 0241159 003.2136 040.1203 13.69372632160202
| Epoch (UTC): | 18 May 2013 04:20:55 |
| Eccentricity: | 0.0241159 |
| inclination: | 63.4531° |
| perigee height: | 824 km |
| apogee height: | 1180 km |
| right ascension of ascending node: | 296.9374° |
| argument of perigee: | 3.2136° |
| revolutions per day: | 13.69372632 |
| mean anomaly at epoch: | 40.1203° |
| orbit number at epoch: | 16020 |
The dashed part of the orbit path shows where the satellite is in the earth's shadow,
|
|